Wind_Speed
13 13 13 12 12 12 12 12 12 12 11 11 11 11 11 11 11 11 11 11 11 11 12 13 14 14 15 15 16 17 18 19 20 20 21 21 22 23
13 13 13 12 12 13 13 12 12 11 12 12 12 12 12 12 12 12 12 12 12 13 13 13 14 15 16 17 18 19 20 20 21 21 21 22 23 24
14 14 14 13 13 13 13 12 12 12 12 12 13 13 13 13 14 13 13 13 13 14 14 15 15 16 17 18 19 19 19 20 21 21 22 23 24 25
15 15 15 14 14 14 13 13 13 14 14 14 14 14 14 15 15 15 14 14 15 15 16 16 17 17 18 18 19 19 20 20 21 22 23 24 25 26
16 15 15 15 15 14 14 14 14 15 15 15 15 15 15 15 15 16 15 15 16 17 17 18 18 18 19 19 20 20 21 21 22 23 24 25 26 26
16 16 16 16 16 15 15 15 16 16 16 16 16 16 16 16 16 17 17 17 18 18 19 19 20 20 20 20 21 21 22 23 24 25 26 26 26 26
17 17 17 17 17 17 17 17 17 17 17 17 17 17 17 17 17 17 18 18 19 19 20 20 20 21 21 22 22 23 24 24 25 25 26 26 26 26
19 18 19 18 18 18 18 19 18 18 18 18 18 18 18 18 18 18 18 19 19 19 20 20 21 21 22 22 23 23 24 25 25 25 25 26 26 27
19 19 19 19 19 19 20 20 20 20 19 19 19 19 19 19 19 20 20 20 20 21 21 21 22 22 22 22 23 23 24 24 25 25 25 26 27 27
19 19 19 20 20 20 20 20 20 20 20 20 20 20 20 20 20 21 22 22 22 22 22 22 22 23 23 23 24 24 24 25 25 26 26 27 27 28
19 19 20 20 20 20 20 20 20 20 20 21 21 21 21 22 22 22 22 23 23 23 23 23 23 24 24 25 25 25 26 26 26 27 28 28 28 29
19 19 20 21 21 21 21 21 21 22 22 23 22 22 23 23 23 23 24 24 24 24 25 25 25 25 25 26 26 27 27 28 28 29 29 30 30 31
21 21 21 21 22 22 22 22 22 23 24 24 24 23 24 24 24 25 25 25 25 25 26 26 27 27 27 27 27 28 29 29 30 30 31 32 33 34
21 21 22 22 22 22 22 22 22 22 24 24 24 24 24 25 25 26 27 27 27 26 27 27 27 28 28 28 28 29 29 30 30 31 32 33 34 35
22 22 23 23 23 23 23 23 23 23 23 24 25 25 25 25 26 26 27 27 28 28 28 28 28 29 29 29 29 30 30 31 32 32 33 34 36 36
24 24 24 24 24 24 25 25 25 25 25 26 26 26 26 26 26 27 27 27 28 28 29 29 29 29 30 30 30 31 31 32 33 34 35 36 37 38
26 26 26 25 25 26 26 27 27 27 27 27 27 27 27 27 27 27 27 28 28 29 29 29 30 30 31 31 31 32 33 34 35 35 36 37 38 39
26 26 26 27 27 27 27 28 28 29 28 28 28 29 28 28 28 28 28 29 29 29 29 30 30 30 31 32 33 33 34 35 36 36 37 38 39 40
27 27 28 28 28 28 28 29 29 30 30 29 29 30 30 29 29 30 29 30 30 30 30 31 31 32 33 33 34 35 35 36 37 38 39 40 41 41
28 28 29 29 29 29 29 30 30 30 30 30 30 31 31 31 30 30 31 31 31 32 32 32 33 34 34 35 35 35 37 38 39 39 40 41 42 43
29 29 29 30 30 30 30 30 31 31 31 30 30 31 31 31 31 32 32 32 33 33 33 34 35 35 36 36 36 37 38 39 40 41 41 42 43 43
29 29 30 30 30 30 30 30 31 31 31 31 31 32 32 33 33 33 33 33 33 34 35 36 36 37 37 37 37 38 39 40 41 41 42 44 44 44
30 30 30 30 31 31 31 31 31 32 32 32 32 33 33 34 34 35 35 34 35 35 36 37 37 38 38 38 38 39 40 41 42 43 44 45 45 45
Wind_Direction
274 273 273 273 274 272 270 268 269 272 273 273 274 275 278 278 280 282 283 281 280 279 281 283 285 287 287 288 287 288 290 290 289 290 290 291 291 291
273 274 274 274 273 271 271 270 269 270 272 274 274 274 277 279 281 283 282 283 284 282 283 286 288 289 289 290 290 291 291 290 289 290 291 291 291 291
276 274 273 273 271 270 268 268 269 269 269 273 275 276 278 280 280 280 280 279 281 282 284 286 288 290 292 293 293 293 292 292 291 291 291 292 293 293
276 274 273 273 271 270 268 267 268 270 270 272 274 277 278 279 278 278 281 280 280 282 285 288 290 291 292 293 294 294 294 293 293 293 294 295 295 294
274 273 273 273 271 269 268 268 269 270 271 273 274 276 277 278 279 279 281 281 283 285 287 289 290 290 291 292 293 294 294 293 293 294 295 296 296 295
272 271 272 271 269 269 269 270 270 270 271 273 273 273 274 275 277 278 279 282 284 286 287 288 289 289 290 292 293 293 294 294 294 294 296 296 296 296
271 270 271 269 268 268 270 270 271 271 272 274 274 273 274 276 276 278 280 283 284 286 287 288 289 289 291 292 292 292 292 294 294 294 295 295 295 296
271 271 271 269 267 267 268 269 270 271 271 272 273 274 275 275 276 278 280 282 284 286 288 289 289 289 290 291 293 293 293 294 295 295 296 296 295 296
273 273 272 270 268 268 268 269 270 271 271 270 271 273 274 275 276 278 281 283 285 286 287 290 292 292 292 293 294 295 296 298 299 298 298 298 297 296
273 273 272 271 271 271 271 271 270 270 270 270 271 273 272 273 276 279 280 282 284 286 288 289 291 293 294 294 294 295 297 299 301 301 300 300 300 299
272 272 272 271 271 271 272 271 269 270 271 272 273 273 273 274 277 278 280 282 284 285 286 288 289 291 292 293 295 296 297 298 300 301 302 302 301 301
272 273 273 272 272 273 272 270 269 271 272 273 274 274 274 274 276 277 278 281 282 285 286 287 288 289 290 292 295 296 297 298 299 300 301 301 301 301
273 273 273 273 274 273 272 271 271 271 273 274 274 274 276 276 276 277 279 281 283 284 285 285 287 288 290 291 293 295 297 297 297 298 300 300 300 301
273 273 274 274 274 275 274 273 274 273 274 274 275 275 276 275 276 278 279 281 282 284 285 285 286 288 289 291 293 295 297 298 298 298 300 301 303 303
273 275 275 276 274 274 274 274 275 274 273 274 276 277 277 277 278 279 279 280 281 283 284 285 287 288 289 291 293 295 296 298 299 300 301 302 303 304
273 274 275 276 276 274 273 274 275 275 273 274 276 277 278 279 279 279 280 281 281 284 286 286 287 288 289 291 293 295 296 298 299 300 301 301 302 303
273 274 274 275 275 275 274 275 275 275 275 273 275 277 278 279 279 280 280 281 282 283 284 285 288 289 289 290 293 295 296 298 299 300 300 301 302 303
273 273 274 275 276 276 275 275 276 276 275 274 274 276 277 278 279 279 280 280 281 283 283 285 287 289 290 290 292 295 296 297 298 301 302 302 303 304
272 273 273 274 275 276 276 276 277 277 276 275 275 276 276 277 279 280 280 280 281 281 283 285 288 289 291 291 292 294 295 297 298 300 302 303 304 304
273 273 273 273 274 275 276 277 277 276 276 276 276 276 277 277 279 280 280 280 280 281 283 285 288 290 291 291 291 293 295 297 298 300 302 303 304 305
273 273 273 274 274 275 276 278 277 277 277 276 276 277 277 277 278 279 280 280 281 282 284 285 288 289 290 290 291 293 295 297 299 301 303 304 305 306
272 272 273 274 275 276 277 277 278 277 277 276 276 277 277 277 278 279 280 281 282 284 285 286 287 288 289 290 292 293 295 297 300 302 303 305 305 306
272 272 272 274 276 276 277 277 278 278 277 276 276 276 277 277 278 279 281 281 283 284 285 286 287 288 289 290 291 292 294 296 299 302 303 305 306 306
Height
5831 5831 5830 5829 5829 5829 5828 5828 5828 5828 5827 5827 5826 5825 5825 5824 5823 5822 5822 5821 5820 5820 5819 5818 5817 5816 5815 5814 5813 5811 5810 5808 5806 5804 5802 5800 5798 5796
5827 5827 5826 5826 5825 5825 5824 5824 5824 5824 5824 5823 5823 5822 5821 5821 5820 5819 5818 5818 5817 5816 5815 5814 5813 5812 5811 5809 5808 5806 5804 5802 5800 5798 5796 5794 5792 5790
5823 5823 5822 5822 5821 5821 5820 5820 5820 5820 5820 5819 5819 5818 5818 5817 5816 5815 5815 5814 5813 5812 5811 5810 5809 5808 5806 5804 5803 5801 5799 5797 5794 5792 5790 5788 5785 5783
5818 5818 5818 5817 5817 5817 5816 5816 5816 5816 5816 5815 5815 5814 5814 5813 5812 5812 5811 5810 5809 5808 5807 5806 5804 5803 5801 5800 5798 5795 5793 5791 5789 5786 5784 5782 5779 5776
5814 5813 5813 5813 5812 5812 5812 5812 5811 5811 5811 5811 5811 5810 5809 5808 5808 5807 5806 5805 5804 5803 5802 5801 5799 5798 5796 5794 5792 5790 5787 5785 5783 5780 5777 5774 5771 5768
5808 5808 5808 5808 5808 5807 5807 5807 5807 5807 5806 5806 5806 5805 5804 5804 5803 5802 5801 5800 5799 5798 5797 5795 5794 5792 5791 5789 5786 5784 5781 5779 5776 5773 5771 5767 5764 5761
5803 5803 5802 5802 5802 5802 5802 5802 5802 5801 5801 5801 5800 5800 5799 5798 5798 5797 5796 5795 5794 5793 5792 5790 5788 5786 5784 5782 5780 5778 5775 5772 5769 5767 5764 5760 5757 5754
5797 5797 5797 5796 5796 5796 5796 5796 5796 5796 5795 5795 5795 5794 5794 5793 5792 5791 5791 5790 5789 5788 5786 5784 5782 5780 5778 5776 5774 5771 5768 5766 5763 5760 5757 5754 5751 5748
5791 5791 5790 5790 5790 5790 5790 5790 5790 5789 5789 5789 5789 5788 5788 5787 5786 5785 5785 5784 5783 5781 5780 5778 5776 5774 5772 5770 5767 5765 5762 5759 5756 5753 5750 5747 5744 5741
5785 5785 5784 5784 5784 5784 5784 5784 5783 5783 5783 5782 5782 5782 5781 5780 5780 5779 5778 5777 5776 5775 5773 5772 5769 5767 5765 5763 5761 5758 5756 5753 5750 5747 5743 5740 5737 5734
5779 5779 5778 5778 5778 5777 5777 5777 5777 5776 5776 5776 5775 5775 5774 5774 5773 5772 5771 5770 5769 5768 5766 5765 5763 5761 5759 5756 5754 5751 5749 5746 5743 5740 5736 5733 5730 5726
5773 5773 5772 5771 5771 5770 5770 5770 5770 5770 5769 5769 5768 5768 5767 5766 5765 5765 5764 5763 5762 5761 5759 5757 5756 5754 5752 5750 5747 5744 5741 5738 5736 5733 5729 5726 5722 5718
5767 5766 5766 5765 5764 5764 5763 5763 5763 5762 5762 5761 5761 5760 5760 5759 5758 5757 5756 5755 5754 5753 5752 5749 5748 5746 5744 5742 5739 5737 5734 5731 5728 5725 5721 5718 5714 5711
5760 5759 5759 5758 5757 5757 5756 5755 5755 5755 5754 5754 5753 5753 5752 5751 5750 5748 5747 5746 5746 5745 5743 5741 5739 5738 5736 5734 5732 5729 5726 5723 5720 5716 5713 5709 5705 5701
5753 5752 5752 5751 5750 5749 5749 5748 5747 5747 5747 5746 5746 5745 5744 5742 5741 5740 5739 5738 5737 5736 5734 5732 5731 5729 5727 5726 5723 5721 5718 5715 5711 5708 5705 5701 5696 5692
5745 5745 5744 5743 5743 5742 5741 5740 5739 5739 5738 5738 5737 5736 5735 5734 5733 5731 5730 5729 5728 5727 5726 5724 5722 5720 5718 5717 5714 5712 5709 5706 5703 5699 5696 5691 5687 5682
5737 5737 5736 5736 5735 5734 5733 5732 5731 5730 5730 5729 5728 5727 5726 5725 5724 5723 5722 5721 5720 5719 5717 5715 5713 5711 5709 5707 5705 5703 5700 5697 5693 5690 5686 5681 5677 5672
5729 5728 5728 5727 5726 5725 5724 5723 5722 5721 5720 5720 5719 5718 5718 5717 5715 5714 5713 5712 5711 5710 5708 5706 5704 5702 5700 5698 5696 5693 5690 5687 5683 5679 5675 5671 5667 5661
5720 5719 5719 5718 5717 5716 5715 5714 5713 5712 5711 5710 5710 5709 5708 5707 5706 5705 5704 5703 5702 5700 5699 5697 5695 5693 5691 5689 5687 5683 5680 5677 5673 5669 5665 5660 5656 5651
5710 5710 5709 5708 5708 5707 5706 5705 5704 5702 5701 5701 5700 5700 5699 5698 5697 5696 5694 5693 5692 5691 5689 5687 5685 5683 5681 5678 5676 5673 5669 5666 5662 5658 5654 5649 5644 5638
5701 5700 5699 5698 5698 5697 5696 5695 5694 5693 5692 5691 5690 5689 5689 5688 5687 5686 5685 5683 5682 5681 5679 5677 5675 5672 5670 5667 5665 5662 5658 5654 5650 5646 5641 5637 5632 5626
5691 5690 5689 5689 5688 5687 5686 5685 5684 5683 5682 5681 5680 5679 5678 5678 5677 5676 5674 5673 5671 5670 5668 5666 5663 5661 5658 5656 5654 5651 5647 5643 5638 5634 5628 5624 5618 5613
5681 5680 5679 5678 5678 5677 5676 5675 5674 5673 5672 5670 5670 5669 5668 5667 5666 5665 5663 5662 5660 5659 5656 5654 5652 5649 5647 5644 5642 5638 5635 5631 5627 5622 5617 5611 5605 5600